This is the latest recevied weather packets stored in our database for station/object K1WJY. If no packets are shown the sender has not sent any weather packets the latest 10 day(s).
| Time | Temp. | Humidity | Pressure | Rain* | Wind** | Luminosity | Snow |
|---|---|---|---|---|---|---|---|
| 1788137871 | 16.67° C | 99% | 1017.5 hPa | 0 mm | - | 0 W/m² | - |
| 1788137566 | 16.67° C | 99% | 1017.4 hPa | 0 mm | - | 0 W/m² | - |
| 1788137261 | 16.67° C | 99% | 1017.5 hPa | 3.05 mm | - | 0 W/m² | - |
| 1788136957 | 16.67° C | 99% | 1017.4 hPa | 3.05 mm | - | 0 W/m² | - |
| 1788136652 | 16.67° C | 99% | 1017.7 hPa | 0 mm | - | 0 W/m² | - |
| 1788136349 | 16.67° C | 99% | 1017 hPa | 1.27 mm | - | 0 W/m² | - |
| 1788136047 | 16.67° C | 99% | 1017.8 hPa | 8.89 mm | - | 0 W/m² | - |
| 1788135747 | 16.67° C | 99% | 1017.3 hPa | 9.65 mm | - | 0 W/m² | - |
| 1788135443 | 17.22° C | 99% | 1017.6 hPa | 4.83 mm | - | 0 W/m² | - |
| 1788135138 | 17.22° C | 99% | 1017.4 hPa | 1.27 mm | - | 0 W/m² | - |
| 1788134835 | 17.22° C | 99% | 1017.1 hPa | 1.78 mm | - | 0 W/m² | - |
| 1788134530 | 17.22° C | 99% | 1017 hPa | 1.78 mm | - | 0 W/m² | - |
| 1788134228 | 17.78° C | 99% | 1017.1 hPa | 1.27 mm | - | 0 W/m² | - |
| 1788133924 | 17.78° C | 98% | 1017 hPa | 1.27 mm | - | 0 W/m² | - |
| 1788133618 | 18.33° C | 97% | 1016.5 hPa | 0 mm | - | 0 W/m² | - |
| 1788133314 | 18.89° C | 95% | 1016.4 hPa | 1.78 mm | - | 0 W/m² | - |
| 1788133009 | 19.44° C | 92% | 1016.2 hPa | 1.78 mm | - | 0 W/m² | - |
| 1788132705 | 20° C | 89% | 1016.3 hPa | 1.78 mm | - | 0 W/m² | - |
| 1788132401 | 20.56° C | 85% | 1016.1 hPa | 0 mm | - | 0 W/m² | - |
| 1788132097 | 21.11° C | 80% | 1016.1 hPa | 0 mm | - | 0 W/m² | - |
| 1788131793 | 21.67° C | 79% | 1015.8 hPa | 0 mm | - | 0 W/m² | - |
| 1788131492 | 21.67° C | 77% | 1015.6 hPa | 0 mm | - | 0 W/m² | - |
| 1788131187 | 21.67° C | 77% | 1015.5 hPa | 0 mm | - | 0 W/m² | - |
| 1788130887 | 21.67° C | 76% | 1015.8 hPa | 0 mm | - | 0 W/m² | - |
| 1788130582 | 22.22° C | 76% | 1015.4 hPa | 0 mm | - | 4 W/m² | - |
* Rain latest hour (hover to see other rain measurements)
** Current wind speed in m/s (hover to see current wind gust speed)